Regional Weather Roundup
Issued by NWS

Home | Current Version | Previous Version | Text Only | Print | Product List | Glossary On
Versions: 1 2 3 4 5 6 7 8 9 10 11 12 13 14 15 16 17 18 19 20 21 22 23 24 25 26 27 28 29 30 31 32 33 34 35 36 37 38 39 40 41 42 43 44 45 46 47 48 49 50
000
ASUS43 KTOP 241108
RWRKS

WEATHER ROUNDUP FOR KANSAS
NATIONAL WEATHER SERVICE GOODLAND KS
600 AM CDT TUE APR 24 2018

NOTE:  "FAIR" INDICATES FEW OR NO CLOUDS BELOW 12,000 FEET WITH NO
SIGNIFICANT WEATHER AND/OR OBSTRUCTIONS TO VISIBILITY.

KSZ001>006-013>018-027>032-041>047-241200-
NORTHWEST KANSAS

CITY           SKY/WX    TMP DP  RH WIND       PRES   REMARKS
GOODLAND       CLOUDY    40  39  97 N20G29    30.23R WCI  30
HAYS           CLEAR     44  40  85 N6        30.13R
HILL CITY      CLOUDY    49  44  83 NW8       30.16R
RUSSELL        CLEAR     42  40  92 W8        30.10S
$$

KSZ061>065-074>080-084>089-241200-
SOUTHWEST KANSAS

CITY           SKY/WX    TMP DP  RH WIND       PRES   REMARKS
DODGE CITY     MOCLDY    48  42  80 SE5       30.13R
ELKHART        MOCLDY    49  46  89 N17       30.17R
GARDEN CITY    CLOUDY    47  43  86 E6        30.14R
GREAT BEND     CLEAR     43  40  89 CALM      30.11F
LIBERAL        MOCLDY    51  45  79 E9        30.13R
PRATT          CLEAR     44  41  88 CALM      30.12S
$$

KSZ066>073-081>083-090>101-241200-
SOUTHEAST KANSAS

CITY           SKY/WX    TMP DP  RH WIND       PRES   REMARKS
CHANUTE        CLEAR     45  39  79 N6        30.08S
COFFEYVILLE    CLEAR     45  42  89 CALM      30.07R
HUTCHINSON     CLEAR     50  40  68 NW5       30.11R
MEDICINE LODGE   N/A     46  43  89 NW3       30.11R
NEWTON         CLEAR     48  36  63 N8        30.11R
PARSONS        CLEAR     43  41  93 CALM      30.08S
WICHITA INTL   PTCLDY    48  43  82 N7        30.09R
WICHITA JABRA  CLEAR     45  39  79 NE3       30.10R
WICHITA MCCONL CLEAR     49  38  66 NE8       30.10R
WINFIELD       CLEAR     44  44 100 NW5       30.10R
$$

KSZ007>012-019>026-033>040-048>060-102>105-241200-
NORTHEAST KANSAS

CITY           SKY/WX    TMP DP  RH WIND       PRES   REMARKS
CONCORDIA      PTCLDY    49  32  52 CALM      30.10S
EMPORIA        CLEAR     45  38  76 NW5       30.09R
LAWRENCE       PTCLDY    41  36  82 NW5       30.10R
MANHATTAN      CLEAR     39  36  89 CALM      30.10S
MARYSVILLE     CLEAR     37  32  81 CALM      30.11S
OLATHE IND     PTCLDY    47  35  63 NW3       30.09S
OLATHE EXE       N/A     50  33  52 N8        30.08S
SALINA         CLEAR     47  40  76 CALM      30.11S
TOPEKA BILLARD CLEAR     42  39  89 CALM      30.10R
TOPEKA FORBES  CLEAR     43  35  73 NW5       30.09S
$$




USA.gov is the U.S. government's official web portal to all federal, state and local government web resources and services.